Location: Moscow
(55.7500°N, 37.5830°E)
Time: 04:19:18
(UTC+03:00)

Vanguard 1 - Pass Details

Date: 15 August 2022
Orbit: 649 x 3832 km, 34.2° (Epoch: 30 September)

Event Time Altitude Azimuth Distance (km) Brightness Sun altitude
Exits shadow 03:52:55 - 210° (SSW) 5,106 13.1 -8.7°
Reaches altitude 10° 03:54:07 10° 206° (SSW) 4,943 13.1 -8.6°
Maximum altitude 04:06:29 30° 153° (SSE) 4,577 13.4 -7.3°
Drops below altitude 10° 04:23:35 10° 103° (ESE) 6,880 15.0 -5.4°
Sets 04:30:11 0° 95° (E) 7,977 15.6 -4.6°
